This is the latest recevied weather packets stored in our database for station/object W5ADC. If no packets are shown the sender has not sent any weather packets the latest 10 day(s).
| Time | Temp. | Humidity | Pressure | Rain* | Wind** | Luminosity | Snow |
|---|---|---|---|---|---|---|---|
| 1777901279 | 18.89° C | 72% | 1009.8 hPa | 0 mm | - | 147 W/m² | - |
| 1777900976 | 18.33° C | 72% | 1009.8 hPa | 0 mm | - | 182 W/m² | - |
| 1777900674 | 18.33° C | 72% | 1009.8 hPa | 0 mm | - | 161 W/m² | - |
| 1777900371 | 18.33° C | 73% | 1009.7 hPa | 0 mm | - | 100 W/m² | - |
| 1777900068 | 18.33° C | 73% | 1009.8 hPa | 0 mm | - | 105 W/m² | - |
| 1777899764 | 18.33° C | 73% | 1009.9 hPa | 0 mm | - | 113 W/m² | - |
| 1777899461 | 17.78° C | 73% | 1009.6 hPa | 0 mm | - | 82 W/m² | - |
| 1777899159 | 17.78° C | 73% | 1009.7 hPa | 0 mm | - | 90 W/m² | - |
| 1777898856 | 17.78° C | 73% | 1009.8 hPa | 0 mm | - | 77 W/m² | - |
| 1777898554 | 17.78° C | 73% | 1009.5 hPa | 0 mm | - | 73 W/m² | - |
| 1777898251 | 17.78° C | 73% | 1009.8 hPa | 0 mm | - | 65 W/m² | - |
| 1777897948 | 17.78° C | 73% | 1009.6 hPa | 0 mm | - | 56 W/m² | - |
| 1777897644 | 17.78° C | 73% | 1009.7 hPa | 0 mm | - | 55 W/m² | - |
| 1777897340 | 17.78° C | 73% | 1009.6 hPa | 0 mm | - | 44 W/m² | - |
| 1777897036 | 17.78° C | 72% | 1009.4 hPa | 0 mm | - | 38 W/m² | - |
| 1777896734 | 17.78° C | 71% | 1009.3 hPa | 0 mm | - | 36 W/m² | - |
| 1777896431 | 17.78° C | 71% | 1009.3 hPa | 0 mm | - | 32 W/m² | - |
| 1777896128 | 17.78° C | 69% | 1009.5 hPa | 0 mm | - | 27 W/m² | - |
| 1777895826 | 17.78° C | 68% | 1009.3 hPa | 0 mm | - | 21 W/m² | - |
| 1777895523 | 17.78° C | 67% | 1009.2 hPa | 0 mm | - | 16 W/m² | - |
| 1777895221 | 17.78° C | 66% | 1009.3 hPa | 0 mm | - | 10 W/m² | - |
| 1777894918 | 17.78° C | 66% | 1009.3 hPa | 0 mm | - | 6 W/m² | - |
| 1777894615 | 17.78° C | 66% | 1009.2 hPa | 0 mm | - | 3 W/m² | - |
| 1777894312 | 17.78° C | 66% | 1009.2 hPa | 0 mm | - | 2 W/m² | - |
| 1777894009 | 17.78° C | 67% | 1009.1 hPa | 0 mm | - | 1 W/m² | - |
* Rain latest hour (hover to see other rain measurements)
** Current wind speed in m/s (hover to see current wind gust speed)